Le nostre stazioni meteo in Italia

Pubblicità
Il mio iltempo24.it
Aosta, Italia (16054): Temperatura & dewpoint: 01.12.2019 11:00:00 - 07.12.2019 11:00:00 (CET)Aosta, Italia (16054): velocità del vento: 01.12.2019 11:00:00 - 07.12.2019 11:00:00 (CET)Aosta, Italia (16054): direzione del vento: 01.12.2019 11:00:00 - 07.12.2019 11:00:00 (CET)Aosta, Italia (16054): visibility: 01.12.2019 11:00:00 - 07.12.2019 11:00:00 (CET)
Data & Tempo tt [°C] td [°C] ff [km/h] ff [kn] dd vv [km]
07.12.2019 11:00:00 -2,0 -2,0 4 2 - 10
07.12.2019 10:00:00 -1,3 -2,9 4 2 - 10
07.12.2019 09:00:00 -1,9 -3,7 5 3 - 10
07.12.2019 08:00:00 -2,2 -4,1 0 0 N 10
07.12.2019 07:00:00 -2,0 -4,1 0 0 N -
07.12.2019 06:00:00 -1,6 -4,0 0 0 N -
07.12.2019 05:00:00 -0,9 -3,1 5 3 SO -
07.12.2019 04:00:00 -0,3 -2,2 4 2 ESE -
07.12.2019 03:00:00 -0,5 -2,6 4 2 ESE -
07.12.2019 02:00:00 -0,6 -3,0 0 0 N -
07.12.2019 01:00:00 0,0 -2,3 0 0 N -
07.12.2019 00:00:00 -0,5 -2,7 0 0 N -
06.12.2019 23:00:00 -0,6 -2,7 0 0 N -
06.12.2019 22:00:00 -1,5 -3,9 2 1 SSE -
06.12.2019 21:00:00 -1,1 -3,5 2 1 NE -
06.12.2019 20:00:00 -1,6 -4,3 0 0 N -
06.12.2019 19:00:00 -1,4 -4,4 0 0 N -
06.12.2019 18:00:00 -0,9 -4,7 0 0 N -
06.12.2019 17:00:00 0,0 -4,5 0 0 N 10
06.12.2019 16:00:00 2,2 -4,4 0 0 N 10
06.12.2019 15:00:00 4,7 -2,3 4 2 - 10
06.12.2019 14:00:00 3,6 -1,4 4 2 - 10
06.12.2019 13:00:00 2,1 0,9 2 1 - 10
06.12.2019 12:00:00 -2,5 -4,1 2 1 - 10
06.12.2019 11:00:00 -3,0 -4,7 4 2 - 10
06.12.2019 10:00:00 -3,7 -5,6 0 0 N 10
06.12.2019 09:00:00 -4,1 -5,8 2 1 SO 10
06.12.2019 08:00:00 -4,2 -6,4 0 0 N 10
06.12.2019 07:00:00 -4,0 -5,9 2 1 OSO -
06.12.2019 06:00:00 -4,1 -5,8 0 0 N -
06.12.2019 05:00:00 -4,1 -6,4 0 0 N -
06.12.2019 04:00:00 -3,7 -5,9 0 0 N -
06.12.2019 03:00:00 -3,0 -4,9 0 0 N -
06.12.2019 02:00:00 -3,3 -5,2 2 1 OSO -
06.12.2019 01:00:00 -3,0 -5,2 0 0 N -
06.12.2019 00:00:00 -2,9 -5,3 0 0 N -
05.12.2019 23:00:00 -2,4 -4,5 0 0 N -
05.12.2019 22:00:00 -2,3 -4,5 0 0 N -
05.12.2019 21:00:00 -2,1 -4,6 0 0 N -
05.12.2019 20:00:00 -1,6 -4,8 0 0 N -
05.12.2019 19:00:00 0,0 -3,1 2 1 OSO -
05.12.2019 18:00:00 0,4 -2,9 4 2 O -
05.12.2019 17:00:00 2,0 -2,4 0 0 N -
05.12.2019 16:00:00 2,8 -3,0 4 2 E 10
05.12.2019 15:00:00 6,2 -1,5 0 0 N 10
05.12.2019 14:00:00 6,1 -0,1 0 0 N 10
05.12.2019 13:00:00 3,0 0,0 4 2 E 10
05.12.2019 12:00:00 1,0 -0,2 4 2 - 10
05.12.2019 11:00:00 -0,2 -1,2 2 1 - 10
05.12.2019 10:00:00 -1,9 -3,2 0 0 N -
05.12.2019 09:00:00 -3,7 -5,4 0 0 N 10
05.12.2019 08:00:00 -3,8 -5,7 0 0 N 10
05.12.2019 07:00:00 -3,5 -5,1 2 1 O -
05.12.2019 06:00:00 -4,0 -5,9 0 0 N -
05.12.2019 05:00:00 -3,3 -5,0 0 0 N -
05.12.2019 04:00:00 -3,7 -5,6 0 0 N -
05.12.2019 03:00:00 -3,4 -5,4 0 0 N -
05.12.2019 02:00:00 -3,3 -5,3 2 1 SSO -
05.12.2019 01:00:00 -2,6 -4,2 4 2 S -
05.12.2019 00:00:00 -2,8 -4,8 0 0 N -
04.12.2019 23:00:00 -2,4 -4,8 0 0 N -
04.12.2019 22:00:00 -1,8 -4,0 0 0 N -
04.12.2019 21:00:00 -1,5 -3,9 2 1 NE -
04.12.2019 20:00:00 -1,1 -3,3 0 0 N -
04.12.2019 19:00:00 -1,7 -4,7 2 1 E -
04.12.2019 18:00:00 -0,8 -4,0 2 1 SE -
04.12.2019 17:00:00 0,4 -3,6 4 2 OSO -
04.12.2019 16:00:00 1,8 -3,4 0 0 N 10
04.12.2019 15:00:00 4,5 -2,0 2 1 - 10
04.12.2019 14:00:00 5,0 -0,3 4 2 - 10
04.12.2019 13:00:00 3,4 1,9 0 0 N 10
04.12.2019 12:00:00 -2,2 -3,9 2 1 - 10
04.12.2019 11:00:00 -2,2 -3,8 2 1 - 10
04.12.2019 10:00:00 -2,6 -3,9 0 0 N 10
04.12.2019 09:00:00 -4,1 -5,8 2 1 - 10
04.12.2019 08:00:00 -3,8 -5,4 4 2 - 10
04.12.2019 07:00:00 -4,2 -6,1 2 1 SSE -
04.12.2019 06:00:00 -4,0 -5,7 0 0 N -
04.12.2019 05:00:00 -3,3 -5,0 0 0 N -
04.12.2019 04:00:00 -3,3 -5,0 0 0 N -
04.12.2019 03:00:00 -3,6 -5,8 0 0 N -
04.12.2019 02:00:00 -2,8 -4,7 0 0 N -
04.12.2019 01:00:00 -2,1 -3,5 0 0 N -
04.12.2019 00:00:00 -2,5 -4,6 0 0 N -
03.12.2019 23:00:00 -1,8 -3,6 2 1 OSO -
03.12.2019 22:00:00 -1,7 -3,5 0 0 N -
03.12.2019 21:00:00 -1,7 -3,8 0 0 N -
03.12.2019 20:00:00 -1,3 -3,7 0 0 N -
03.12.2019 19:00:00 -0,8 -3,4 0 0 N -
03.12.2019 18:00:00 0,3 -3,0 0 0 N -
03.12.2019 17:00:00 1,6 -2,0 0 0 N 10
03.12.2019 16:00:00 2,3 -2,5 4 2 - 10
03.12.2019 15:00:00 6,4 -0,2 5 3 ESE 10
03.12.2019 14:00:00 5,3 0,8 2 1 - 10
03.12.2019 13:00:00 3,3 2,6 4 2 - 10
03.12.2019 12:00:00 -0,8 -2,1 2 1 O 10
03.12.2019 11:00:00 -0,8 -2,0 2 1 - 10
03.12.2019 10:00:00 -1,8 -3,2 0 0 N 10
03.12.2019 09:00:00 -2,2 -3,8 0 0 N 10
03.12.2019 08:00:00 -1,7 -3,0 0 0 N -
03.12.2019 07:00:00 -2,2 -3,8 2 1 N -
03.12.2019 06:00:00 -2,0 -3,6 0 0 N -
03.12.2019 05:00:00 -1,4 -2,9 0 0 N -
03.12.2019 04:00:00 -1,5 -3,1 2 1 N -
03.12.2019 03:00:00 -1,0 -2,5 2 1 SSE -
03.12.2019 02:00:00 -0,6 -1,9 2 1 SSE -
03.12.2019 01:00:00 -0,6 -2,1 2 1 SE -
03.12.2019 00:00:00 -0,1 -1,4 2 1 SSO -
02.12.2019 23:00:00 0,2 -1,0 4 2 S -
02.12.2019 22:00:00 0,3 -1,2 2 1 ONO -
02.12.2019 21:00:00 0,6 -0,6 5 3 SO -
02.12.2019 20:00:00 0,8 -0,8 0 0 N -
02.12.2019 19:00:00 1,5 0,0 2 1 OSO -
02.12.2019 18:00:00 1,5 -0,6 0 0 N -
02.12.2019 17:00:00 3,0 0,4 2 1 - 10
02.12.2019 16:00:00 4,5 0,9 0 0 N -
02.12.2019 15:00:00 7,3 3,1 2 1 - 10
02.12.2019 14:00:00 5,4 2,2 4 2 - 10
02.12.2019 13:00:00 4,2 3,8 4 2 - 9
02.12.2019 12:00:00 0,6 -0,1 4 2 - 0,3
02.12.2019 11:00:00 0,8 0,1 4 2 - 0,3
02.12.2019 10:00:00 0,6 -0,3 4 2 S -
02.12.2019 09:00:00 0,7 -0,2 0 0 N 0,3
02.12.2019 08:00:00 0,9 -0,1 4 2 OSO -
02.12.2019 07:00:00 1,3 0,4 0 0 N -
02.12.2019 06:00:00 1,3 0,3 2 1 S -
02.12.2019 05:00:00 1,6 0,6 0 0 N -
02.12.2019 04:00:00 1,9 0,9 4 2 SSO -
02.12.2019 03:00:00 2,1 0,8 0 0 N -
02.12.2019 02:00:00 2,1 0,9 4 2 OSO -
02.12.2019 01:00:00 1,9 0,6 0 0 N -
02.12.2019 00:00:00 2,0 0,7 4 2 SSE -
01.12.2019 23:00:00 2,2 0,9 0 0 N -
01.12.2019 22:00:00 2,2 1,0 0 0 N -
01.12.2019 21:00:00 2,1 0,8 0 0 N -
01.12.2019 20:00:00 1,9 0,4 0 0 N -
01.12.2019 19:00:00 1,7 -0,1 0 0 N -
01.12.2019 18:00:00 1,8 -0,2 2 1 SSO -
01.12.2019 17:00:00 2,9 0,6 2 1 SSO -
01.12.2019 16:00:00 3,6 1,3 5 3 SSO 8
01.12.2019 15:00:00 4,9 2,4 2 1 - 4,9
01.12.2019 14:00:00 4,9 2,4 4 2 OSO 10
01.12.2019 13:00:00 5,3 2,8 0 0 N 7
01.12.2019 12:00:00 5,3 2,6 4 2 OSO 10
01.12.2019 11:00:00 5,3 2,3 8 4 OSO 10

tt = Temperatura
td = dewpoint
ff = velocità del vento
dd = direzione del vento
vv = visibility

Stazioni seguenti

WeatherPro
AMSI
MeteoEarth